SCP
0 0 0 0 0 0 0 0 0 0 0 0 0 0 0 0 0 0 0 0 0 0 0 0 1 1 1 1 1 1 1 1 0 0 0 0 0 0 0 0 0 0 0 0 0 0 0 0 0
0 0 0 0 0 0 0 0 0 0 0 0 0 0 0 0 0 0 0 0 0 0 0 0 0 1 1 1 1 1 1 1 1 0 0 0 0 0 0 0 0 0 0 0 0 0 0 0 0
0 0 0 0 0 0 0 0 0 0 0 0 0 0 0 0 0 0 0 0 0 0 0 0 0 1 1 1 1 1 1 1 1 1 1 0 0 0 0 0 0 0 0 0 0 0 0 0 0
0 0 0 0 0 0 0 0 0 0 0 0 0 0 0 0 0 0 0 0 0 0 0 0 0 1 1 2 2 1 1 1 1 1 1 1 0 0 0 0 0 0 0 0 0 0 0 0 0
0 0 0 0 0 0 0 0 0 0 0 0 0 0 0 0 0 0 0 0 0 0 0 0 0 1 1 1 2 2 2 1 1 1 1 1 1 1 0 0 1 1 0 0 0 0 0 0 0
0 0 0 0 0 0 0 0 0 0 0 0 0 0 0 0 0 0 0 0 0 0 0 0 0 0 1 1 2 2 2 2 2 1 1 1 1 1 1 1 1 1 0 0 0 0 0 0 0
0 0 0 0 0 0 0 0 0 0 0 0 0 0 0 0 0 0 0 0 0 0 0 0 0 0 0 1 1 2 2 2 2 2 1 1 1 1 1 1 1 1 0 0 0 0 0 0 0
0 0 0 0 0 0 0 0 0 0 0 0 0 0 0 0 0 0 0 0 0 0 0 0 0 0 0 0 1 1 1 2 2 2 1 1 0 0 1 1 1 0 0 0 0 0 0 0 0
0 0 0 0 0 0 0 0 0 0 0 0 0 0 0 0 0 0 0 0 0 0 0 0 0 0 0 0 0 1 1 1 1 1 1 1 0 0 0 0 0 0 0 0 0 0 0 0 0
0 0 0 0 0 0 0 0 0 0 0 0 0 0 0 0 0 0 0 0 0 0 0 0 0 0 0 0 0 1 1 1 1 1 1 1 0 0 0 0 0 0 0 0 0 0 0 0 0
0 0 0 0 0 0 0 0 0 0 0 0 0 0 0 0 0 0 0 0 0 0 0 0 0 0 0 0 0 1 1 1 1 1 1 1 0 0 0 0 0 0 0 0 0 0 0 0 0
0 0 0 0 0 0 0 0 0 0 0 0 0 0 0 0 0 0 0 0 0 0 0 0 0 0 0 0 0 1 1 1 1 1 1 1 1 0 0 0 0 0 0 0 0 0 0 0 0
0 0 0 0 0 0 0 0 0 0 0 0 0 0 0 0 0 0 0 0 0 0 0 0 0 0 0 0 0 0 1 1 1 1 1 1 1 0 0 0 0 0 0 0 0 0 0 0 0
0 0 0 0 0 0 0 0 0 0 0 0 0 0 0 0 0 0 0 0 0 0 0 0 0 0 0 0 0 0 1 1 1 1 1 1 1 0 0 0 0 0 0 0 0 0 0 0 0
0 0 0 0 0 0 0 0 0 0 0 0 0 0 0 0 0 0 0 0 0 0 0 0 0 0 0 0 0 0 0 1 1 1 1 1 0 0 0 0 0 0 0 0 0 0 0 0 0
0 0 0 0 0 0 0 0 0 0 0 0 0 0 0 0 0 0 0 0 0 0 0 0 0 0 0 0 0 0 0 0 1 1 1 1 0 0 0 0 0 0 0 0 0 0 0 0 0
0 0 0 0 0 0 0 0 0 0 0 0 0 0 0 0 0 0 0 0 0 0 0 0 0 0 0 0 0 0 0 0 1 1 1 1 0 0 0 0 0 0 0 0 0 0 0 0 0
0 0 0 0 0 0 0 0 0 0 0 0 0 0 0 0 0 0 0 0 0 0 0 0 0 0 0 0 0 0 0 0 1 1 1 1 1 0 0 0 0 0 0 0 0 0 0 0 0
0 0 0 0 0 0 0 0 0 0 0 0 0 0 0 0 0 0 0 0 0 0 0 0 0 0 0 0 0 0 0 0 0 1 1 1 1 0 0 0 0 0 0 0 0 0 0 0 0
0 0 0 0 0 0 0 0 0 0 0 0 0 0 0 0 0 0 0 0 0 0 0 0 0 0 0 0 0 0 0 0 0 1 1 1 1 1 0 0 0 0 0 0 0 0 0 0 0
0 0 0 0 0 0 0 0 0 0 0 0 0 0 0 0 0 0 0 0 0 0 0 0 0 0 0 0 0 0 0 0 1 1 1 1 1 1 1 0 0 0 0 0 0 0 0 0 0
0 0 0 0 0 0 0 0 0 0 0 0 0 0 0 0 0 0 0 0 0 0 0 0 0 0 0 0 1 1 0 1 1 1 1 2 2 1 1 1 0 0 0 0 0 0 0 0 0
0 0 0 0 0 0 0 0 0 0 0 0 0 0 0 0 0 0 0 0 0 0 0 0 0 0 0 1 1 1 1 1 1 1 1 2 2 2 1 1 1 0 0 0 0 0 0 0 0
0 0 0 0 0 0 0 0 0 0 0 0 0 0 0 0 0 0 0 0 0 0 0 0 0 0 0 1 1 1 1 1 1 1 1 2 2 2 1 1 1 0 0 0 0 0 0 0 0
0 0 0 0 0 0 0 0 0 0 0 0 0 0 0 0 0 0 0 0 0 0 0 0 0 0 0 0 1 1 1 1 1 0 1 1 2 2 1 1 1 1 0 0 0 0 0 0 0
0 0 0 0 0 0 0 0 0 0 0 0 0 0 0 0 0 0 0 0 0 0 0 0 0 0 0 0 0 0 1 1 1 1 0 0 1 1 1 1 1 1 1 0 0 0 0 0 0
0 0 0 0 0 0 0 0 0 0 0 0 0 0 0 0 0 0 0 0 0 0 0 0 0 0 0 0 0 0 1 1 1 1 0 0 0 0 0 0 0 0 1 1 0 0 0 0 0
0 0 0 0 0 0 0 0 0 0 0 0 0 0 0 0 0 0 0 0 0 0 0 0 0 0 0 0 0 0 0 1 1 1 1 0 0 0 0 0 0 0 0 0 0 1 0 0 0
0 0 0 0 0 0 0 0 0 0 0 0 0 0 0 0 0 0 0 0 0 0 0 0 0 0 0 0 0 0 0 0 1 1 1 0 0 0 0 0 0 0 0 0 0 0 0 0 0
0 0 0 0 0 0 0 0 0 0 0 0 0 0 0 0 0 0 0 0 0 0 0 0 0 0 0 0 0 0 0 0 0 1 1 0 0 0 0 0 0 0 0 0 0 0 0 0 0
Wind_Speed
10 4 1 4 6 5 1 3 2 2 2 2 1 3 5 4 2 1 1 4 6 7 7 8 10 11 12 11 11 11 11 10 10 10 10 11 11 10 10 10 9 9 9 10 10 10 10 10 10
4 2 4 5 5 1 3 3 2 1 1 1 3 3 3 2 2 3 2 2 6 8 6 7 9 10 11 11 11 10 10 10 10 10 10 10 10 10 9 8 8 8 8 8 9 9 9 8 8
3 2 5 5 4 4 3 2 2 2 1 2 3 3 2 1 1 2 1 5 6 6 5 6 9 10 11 11 10 10 9 9 9 10 9 9 9 9 8 8 7 7 7 7 7 7 7 7 6
2 4 5 4 2 3 3 2 1 2 3 3 3 3 2 3 0 2 5 7 7 5 5 6 8 10 10 10 10 9 9 8 8 9 9 8 8 8 7 7 6 6 5 5 6 6 5 5 5
4 4 4 1 2 2 2 2 1 2 2 2 3 2 2 4 3 6 7 7 7 5 4 5 7 8 9 9 9 9 8 8 8 8 8 7 7 7 7 6 5 5 5 4 4 4 4 4 3
4 4 4 2 2 2 2 2 1 2 1 2 2 2 1 2 3 5 6 6 5 5 4 4 6 6 6 7 7 7 7 7 7 7 7 6 6 6 6 6 5 5 4 3 3 3 3 2 2
4 4 4 3 2 1 2 2 1 1 2 1 1 2 2 2 2 4 5 5 5 5 4 3 3 4 5 5 5 5 5 6 6 6 5 5 5 5 4 4 4 4 3 3 2 2 2 2 1
3 4 3 2 3 1 3 2 2 1 1 2 2 2 2 1 3 5 5 5 5 4 3 3 3 3 3 3 4 4 4 5 5 5 5 5 4 4 3 3 3 3 3 2 2 1 2 1 1
3 4 3 3 4 2 2 2 4 2 2 3 3 2 2 3 6 6 4 3 3 2 2 2 2 2 2 2 3 3 3 4 4 4 5 4 2 2 2 2 3 3 2 2 2 2 2 1 1
3 3 4 2 2 1 1 2 3 3 4 4 4 5 5 6 6 5 4 3 3 3 2 1 2 2 2 1 2 1 1 1 1 1 2 2 1 1 1 2 3 3 2 2 3 2 2 1 1
2 3 1 0 1 1 2 3 3 3 3 2 3 3 4 4 3 2 2 2 2 2 2 1 2 2 2 1 1 1 1 1 1 1 1 1 1 0 0 0 1 1 1 1 2 1 1 1 1
2 1 1 1 1 2 1 1 4 4 2 3 3 2 3 3 1 1 2 1 0 0 2 1 2 2 2 1 1 1 1 1 1 1 1 1 1 0 0 1 1 1 1 1 1 1 2 2 2
2 1 1 2 3 2 4 3 2 3 4 5 6 7 5 3 2 2 2 2 1 0 1 1 2 2 2 2 1 2 2 2 2 1 1 2 1 1 1 1 1 1 1 1 2 2 2 2 2
1 1 1 2 2 2 4 3 3 4 4 6 7 6 5 4 4 5 5 4 2 1 2 2 2 2 2 2 2 2 2 2 2 2 2 3 2 2 2 1 1 2 2 2 2 3 3 3 2
2 2 3 3 2 1 2 4 2 3 4 6 6 6 7 7 7 6 4 3 3 2 2 2 2 1 2 2 2 2 2 2 2 2 2 3 2 2 2 2 2 2 2 2 2 2 2 2 2
3 3 1 3 3 2 4 2 3 4 4 6 6 6 6 7 7 6 6 6 5 4 3 2 1 1 1 1 1 1 1 2 2 2 2 3 3 3 2 2 2 2 1 2 2 2 2 3 3
3 1 1 2 3 2 3 2 3 4 4 4 4 5 5 6 8 7 7 6 5 5 4 3 2 2 1 1 1 0 0 0 1 1 1 2 3 3 3 3 2 2 2 2 2 2 2 3 3
2 2 1 1 2 3 2 1 3 4 3 3 3 4 5 6 6 6 7 6 5 5 5 4 4 4 2 1 1 1 1 1 0 0 1 1 1 2 2 2 2 1 1 2 2 3 3 3 3
3 3 1 1 1 1 2 1 3 3 3 3 3 4 4 5 6 7 7 7 7 7 6 5 5 5 3 2 1 1 1 1 1 1 2 2 2 1 1 1 1 1 2 2 3 3 3 3 2
3 2 0 1 1 1 1 2 2 1 1 1 2 2 3 5 7 8 8 8 8 7 7 6 5 5 4 2 1 1 1 1 2 2 3 4 3 3 1 1 1 1 1 2 2 2 2 2 2
2 4 3 1 2 1 1 3 1 1 1 2 2 2 2 3 4 6 7 7 7 7 7 6 6 5 4 4 2 3 2 2 3 4 3 4 4 4 3 2 1 1 1 1 2 2 2 3 2
4 3 3 2 2 1 1 3 4 2 2 2 2 2 2 3 3 4 5 6 6 5 6 6 6 6 5 4 3 4 3 2 2 2 2 4 5 5 4 4 3 2 1 2 2 2 2 2 2
2 2 3 2 2 0 1 2 5 1 2 3 2 2 2 3 3 3 4 4 5 5 5 5 6 6 6 5 4 3 2 2 2 2 3 3 4 5 5 5 4 4 3 3 3 2 2 2 3
1 2 3 2 2 2 3 3 6 3 4 3 2 2 2 3 3 3 4 5 5 6 6 5 6 7 7 6 5 4 3 3 4 4 3 3 2 3 5 5 4 4 4 4 4 3 3 3 3
3 4 2 2 1 5 2 3 7 4 3 3 2 2 2 2 3 4 5 6 6 7 6 6 7 7 7 6 5 4 4 4 3 3 3 3 3 3 4 4 4 4 4 4 4 4 4 4 4
3 4 5 4 4 3 1 5 5 1 1 0 1 0 2 3 3 4 5 5 5 6 6 6 6 6 7 6 5 4 4 3 3 3 3 3 3 3 4 4 4 4 4 4 4 3 3 4 4
4 3 2 3 1 1 4 4 5 1 2 2 2 2 3 3 3 4 4 4 4 5 5 5 5 5 6 5 5 5 5 4 4 4 4 3 4 4 5 5 5 4 4 4 4 3 4 4 4
2 4 3 3 3 3 4 4 4 3 2 1 1 1 2 3 3 3 3 3 4 4 4 4 4 4 5 5 5 5 4 4 3 3 4 4 4 5 5 5 5 5 5 5 4 4 5 5 4
2 2 3 3 3 3 3 6 3 6 5 3 2 1 1 2 2 3 3 3 3 3 4 4 4 4 5 5 5 5 5 4 4 3 4 4 4 4 5 5 5 5 5 5 5 5 5 5 5
2 3 4 3 2 3 3 6 2 3 3 2 1 1 2 2 2 2 2 3 3 4 4 4 4 4 4 4 4 4 5 4 4 4 4 4 4 5 5 5 5 5 5 5 5 6 6 6 6
Wind_Direction
332 332 48 56 54 52 278 270 271 327 335 337 22 113 131 131 147 184 14 125 125 137 148 149 146 146 144 142 141 141 139 135 132 128 124 120 118 115 112 110 107 106 105 103 100 97 94 91 89
318 334 49 59 85 87 273 268 276 281 267 24 41 66 75 59 43 99 105 132 130 136 139 143 144 142 141 140 141 143 143 141 139 135 131 128 125 121 118 115 112 110 110 110 106 103 100 94 90
322 40 75 75 115 175 231 263 252 321 13 54 46 46 67 22 56 158 153 132 120 126 130 139 143 145 144 142 142 144 144 143 143 140 136 135 134 131 128 124 120 115 112 113 112 108 105 98 91
43 46 58 84 175 216 224 282 298 6 23 35 76 48 33 22 193 158 120 119 114 113 121 140 145 149 149 148 149 150 149 148 147 144 141 139 138 139 138 134 129 125 119 117 113 108 106 98 90
55 76 76 91 227 259 273 301 11 42 13 17 70 80 3 7 57 103 117 120 122 115 111 137 141 149 152 154 156 155 155 154 152 150 146 143 141 142 141 139 135 130 123 121 122 118 110 102 90
58 75 111 197 239 284 309 321 49 46 30 33 67 78 359 26 76 110 117 117 122 125 116 128 141 141 148 154 156 158 160 154 152 149 145 143 143 146 145 143 142 140 137 130 137 134 122 112 94
109 113 161 177 201 292 328 340 85 50 27 359 120 95 331 23 76 107 102 103 107 114 114 117 132 140 145 147 155 158 158 153 153 152 148 145 145 151 147 149 154 154 155 158 162 162 151 149 122
118 118 146 172 175 246 325 5 29 59 333 358 76 98 281 289 102 96 91 96 104 107 118 120 119 124 137 148 157 161 165 159 156 154 152 148 151 156 157 165 176 185 185 182 190 201 221 222 235
85 100 177 186 177 232 339 26 357 11 69 42 41 35 324 110 110 104 96 100 124 134 133 130 134 127 136 153 166 168 176 173 166 160 163 156 151 158 175 198 212 216 213 225 230 237 246 250 260
91 157 197 186 177 174 30 42 353 34 37 22 8 16 46 91 112 125 134 152 171 185 180 153 160 160 151 169 151 155 158 159 142 129 148 148 149 167 190 223 231 238 239 248 252 262 266 257 284
107 168 175 8 21 64 53 28 20 71 31 352 330 354 55 77 95 125 155 168 194 199 189 187 185 178 172 163 143 139 127 118 113 130 145 134 137 136 186 212 258 261 254 259 263 276 270 246 241
108 44 52 349 354 29 34 52 43 50 333 347 9 72 81 89 133 189 202 203 192 199 216 209 199 186 190 158 149 150 146 159 178 176 151 146 156 184 210 225 241 258 273 262 255 247 253 253 250
89 29 17 22 49 68 70 67 84 10 346 18 41 55 60 65 24 6 17 36 46 301 267 245 202 197 187 176 183 180 186 186 190 187 194 178 180 205 212 231 239 243 248 252 255 253 254 253 255
150 110 36 12 28 40 68 29 52 348 2 33 44 46 37 37 27 25 19 7 344 287 269 259 219 210 196 191 201 201 195 192 192 200 213 203 200 199 203 228 240 250 239 236 240 247 252 258 256
98 77 31 16 22 31 77 15 17 341 27 41 35 35 36 26 24 18 3 353 340 322 302 283 243 218 206 213 214 216 207 197 208 216 215 213 210 208 206 213 231 249 248 240 243 259 255 262 268
68 79 37 333 15 6 94 263 341 357 42 44 33 30 28 22 21 11 8 5 5 0 350 341 334 307 254 243 234 235 219 206 219 220 218 218 218 213 208 218 230 237 228 235 239 247 256 258 260
62 139 217 318 5 45 104 238 326 5 52 47 30 26 24 16 16 7 6 8 10 8 6 7 360 352 310 300 308 331 19 240 248 241 240 234 227 218 211 220 234 228 227 235 245 252 251 261 266
171 162 153 221 337 68 111 253 336 1 51 53 29 20 22 20 2 0 5 7 11 15 16 15 8 4 357 17 23 16 7 325 347 341 303 295 257 236 218 226 236 225 239 257 254 257 252 253 266
141 140 162 239 282 89 140 296 324 345 28 35 28 21 18 10 1 10 12 10 14 17 18 17 13 8 14 17 11 340 304 319 6 8 14 358 337 311 232 271 255 225 229 253 264 265 259 258 261
157 143 179 329 6 124 124 300 310 342 23 44 32 9 9 8 9 12 15 16 18 17 12 14 10 10 10 1 338 334 336 350 32 22 21 11 2 355 328 309 293 294 270 273 272 279 277 270 239
179 187 201 228 3 41 63 326 306 316 36 41 40 30 16 13 359 2 10 13 13 15 10 7 5 6 5 5 20 27 36 29 28 13 7 2 2 5 0 347 326 312 281 282 284 282 268 272 262
219 193 178 167 131 270 129 272 272 269 328 353 357 1 349 354 356 356 4 8 11 7 7 8 6 14 13 18 33 45 38 22 348 349 358 6 9 5 1 359 356 341 321 305 299 301 282 267 271
220 171 160 164 149 163 168 226 272 218 262 284 297 312 325 340 350 349 354 357 3 7 14 12 15 18 20 23 31 43 36 14 5 13 21 14 11 9 6 3 359 354 342 331 323 306 297 276 265
159 102 83 68 91 231 207 203 264 225 225 254 282 316 339 350 353 0 5 8 11 13 16 16 22 20 18 20 23 35 36 26 22 9 4 358 359 3 7 3 2 356 349 343 335 322 304 285 280
109 111 77 11 303 246 196 208 248 234 219 210 230 271 331 359 2 7 8 8 8 12 12 13 22 19 16 17 19 25 27 28 22 360 355 353 352 352 351 353 351 346 339 336 337 333 323 307 296
173 147 151 183 218 270 239 229 251 256 275 218 161 163 28 17 13 15 11 9 6 8 9 14 20 17 15 15 14 21 24 28 16 3 0 357 343 339 345 345 344 341 338 338 334 323 322 323 310
148 166 147 125 77 255 257 279 301 337 17 32 30 31 18 8 6 12 10 10 7 6 5 9 16 15 13 10 16 22 22 23 15 3 8 6 355 354 360 356 352 347 345 342 334 325 318 318 315
125 136 118 131 148 253 277 256 244 234 243 299 331 347 345 354 358 357 0 5 6 6 5 10 16 15 9 9 12 15 13 11 6 7 7 2 356 357 357 359 353 351 349 343 337 329 323 319 311
111 129 127 133 160 176 259 266 225 208 200 201 239 283 303 328 332 333 344 354 3 7 7 10 11 13 11 8 6 8 5 6 3 0 358 352 348 350 352 347 345 347 349 347 343 331 326 318 314
154 158 149 158 217 210 232 267 285 202 197 189 232 301 330 324 324 331 344 353 1 2 360 3 6 8 1 358 2 1 0 359 358 357 353 351 347 348 347 342 342 344 343 343 339 331 331 323 316